STARLINK-5187, 54065

Orbit data source: Space-Track

STARLINK-5187, 54065 is a payload satellite owned by SpaceX/Seattle (US) in LEO that was launched on Thu, 20 Oct 2022 UTC via an FALCON 9 launch vehicle from the Air Force Eastern Test Range (AFETR). Payload-class satellites include a variety of spacecraft equipped with specific instruments for various scientific and technological missions. These include communications satellites like Starlink; space stations such as the ISS; scientific satellites like the Hubble; Earth observation satellites from companies like Planet Labs, Umbra, and HawkEye 360; GPS; miniature CubeSats for education and research; and military/defense satellites.

Loading next visibility...
Identifier
54065, 2022-136Q
Orbit
LEO
Country
Flag of USUS
Related business
Manufacturer
SpaceX/Seattle
Mission
Operational Commercial Communications
Bus & Motor
STARLINK, Unknown motor
Mass
305 kg wet, ~290 kg dry
Launch date (UTC)
2022-10-20 (3 years ago)
Launch vehicle
FALCON 9
Launch site
Air Force Eastern Test Range (AFETR)
Object type
Payload
Rocket body
Debris
Shape & HBR
Box + 1 Pan, 10.1 m
Radar Cross Section
13.562 m², Large (>1 m²)

Expand to show TLE details & history
Last TLE update: 9 hours ago

TLE from 9 hours ago
0 STARLINK-5187
1 54065U 22136Q   25304.43933953  .00002084  00000-0  14892-3 0  9998
2 54065  53.2169 204.2012 0001310  80.7267 279.3873 15.08852029167333
Epoch: 2025-10-31T10:32Z
TLE epoch observation values (Epoch: 2025-10-31T10:32:38.935Z)
Latitude
-0.00004°
Longitude
6.05519°
Altitude
540.456 km
Speed
7.593 km/s
True Right ascension
13h 36m 48s
True Declination
0° 00' 00"
Sunlit
Object was in daylight at epoch
Visualization orbit readout
Latitude
Unknown
Longitude
Unknown
Altitude
Unknown
Speed
Unknown
Apparent Right ascension
Unknown
Apparent Declination
Unknown
Sunlit
N/A
Visualization observer readout
Local Sidereal Time
15:28:59
Azimuth
Unknown
Elevation
Unknown
Doppler factor
Unknown
Orbital elements
Apogee altitude
540.858 km
Perigee altitude
539.045 km
Semi-major axis
6,918.089 km
Eccentricity
0.00013
Inclination
53.2169°
RAAN
204.2012°
Arg. of periapsis
80.7267°
True anomaly
279.37249°
Mean anomaly
279.3873°
Eccentric anomaly
279.37989°
Mean motion
3.77193 °/min
Orbital period
95.44 mins
BSTAR
0.00014892
Loading maneuver chart data...
Computing Atmospheric mass density...
Loading historical data...
Loading historical data...
Loading historical data...
Loading historical data...
Loading historical data...
Loading historical data...
Loading historical data...

Documentation

Showing up to 5 results
|